This demonstration page uses our WeatherBlox Daily Observations layout. Learn more.

Left ArrowRight Arrow

Hourly Observations for April 21, 2019

Temp ( °F °C ) Dew Point ( °F °C ) Humidity (%) Winds ( mph kmh ) Pressure ( in mb ) Visibility ( mi km ) Precip ( " mm )
12:52 am 00:52 Partly Cloudy 66 18.9 47 8.3 50 50 SSE 15 24 29.70 1006 10 16 0.00 0.00
1:52 am 01:52 Mostly Clear 63 17.2 48 8.9 58 58 SSE 13 20 29.70 1006 10 16 0.00 0.00
2:52 am 02:52 Mostly Clear 61 16.1 47 8.3 60 60 SSE 12 19 29.70 1006 10 16 0.00 0.00
3:52 am 03:52 Mostly Clear 61 16.1 47 8.3 60 60 SSE 14 22 29.69 1006 10 16 0.00 0.00
4:52 am 04:52 Mostly Clear 61 16.1 47 8.3 60 60 SSE 14 22 29.69 1005 10 16 0.00 0.00
5:52 am 05:52 Mostly Clear 61 16.1 46 7.8 58 58 SSE 13 20 29.68 1005 10 16 0.00 0.00
6:52 am 06:52 Mostly Sunny 61 16.1 46 7.8 58 58 SSE 13 20 29.70 1006 10 16 0.00 0.00
7:52 am 07:52 Mostly Sunny 63 17.2 47 8.3 56 56 SSE 12 19 29.71 1006 10 16 0.00 0.00
8:52 am 08:52 Partly Cloudy 67 19.4 47 8.3 49 49 S 17 28 29.71 1006 10 16 0.00 0.00
9:52 am 09:52 Mostly Cloudy 69 20.6 48 8.9 47 47 S 13 20 29.70 1006 10 16 0.00 0.00
10:52 am 10:52 Mostly Cloudy 72 22.2 49 9.4 44 44 SSE 15 24 29.71 1006 10 16 0.00 0.00
11:52 am 11:52 Mostly Cloudy 74 23.3 50 10 43 43 SSE 17 28 29.69 1006 10 16 0.00 0.00
12:52 pm 12:52 Mostly Cloudy 76 24.4 49 9.4 39 39 SSE 20 31 29.68 1005 10 16 0.00 0.00
1:52 pm 13:52 Mostly Cloudy 82 27.8 50 10 33 33 S 25 41 29.66 1004 10 16 0.00 0.00
2:52 pm 14:52 Mostly Cloudy 84 28.9 51 10.6 32 32 SSE 28 44 29.63 1004 10 16 0.00 0.00
3:52 pm 15:52 Mostly Cloudy 87 30.6 51 10.6 29 29 S 33 54 29.62 1003 10 16 0.00 0.00
4:52 pm 16:52 Mostly Cloudy 87 30.6 51 10.6 29 29 S 30 48 29.62 1003 10 16 0.00 0.00
5:52 pm 17:52 Partly Cloudy 86 30 52 11.1 31 31 S 26 43 29.62 1003 10 16 0.00 0.00
6:52 pm 18:52 Mostly Cloudy 84 28.9 51 10.6 32 32 S 26 43 29.63 1004 10 16 0.00 0.00
7:52 pm 19:52 Partly Cloudy 82 27.8 50 10 33 33 SSE 21 33 29.65 1004 10 16 0.00 0.00
8:52 pm 20:52 Mostly Cloudy 79 26.1 49 9.4 35 35 S 16 26 29.67 1005 10 16 0.00 0.00
9:52 pm 21:52 Mostly Cloudy 78 25.6 50 10 37 37 S 20 31 29.69 1005 10 16 0.00 0.00
10:52 pm 22:52 Mostly Cloudy 75 23.9 50 10 41 41 S 15 24 29.72 1006 10 16 0.00 0.00
11:39 pm 23:39 Mostly Cloudy with Nearby Thunderstorms 75 23.9 49 9.4 40 40 SSE 18 30 29.70 1006 10 16 0.00 0.00
11:52 pm 23:52 Windy with Storms Likely 73 22.8 51 10.6 46 46 SSE 21 33 29.71 1006 10 16 0.00 0.03

Powered by AerisWeather